When you browse on this site, cookies collect data to enhance your experience and personalize the content and advertising you see.
Visit our Privacy Policy to learn more. By continuing to use the site, you agree to this use of cookies and data.
  • In United Kingdom
  • List of Countries
  • For 7 days
  • Water Temperature
  • Satellite Maps
  • Weather Map
  • Weather Widgets
  • user-avatar
    Login

    Hourly Weather Ovrahove

    Today, 23 April, Tuesday

    Time Temperature Precipitation Wind Pressure Humidity
    00:00 +13°C° 0 mm 1 mps 759 mmHg 48%
    01:00 +12°C° 0 mm 1 mps 759 mmHg 48%
    02:00 +12°C° 0 mm 1 mps 760 mmHg 48%
    03:00 +12°C° 0 mm 1 mps 760 mmHg 49%
    04:00 +12°C° 0 mm 2 mps 760 mmHg 51%
    05:00 +12°C° 0 mm 2 mps 760 mmHg 53%
    06:00 +12°C° 0.1 mm 2 mps 760 mmHg 55%
    07:00 +13°C° 0.1 mm 2 mps 760 mmHg 56%
    08:00 +13°C° 0.1 mm 1 mps 760 mmHg 58%
    09:00 +15°C° 0 mm 1 mps 761 mmHg 51%
    10:00 +16°C° 0 mm 1 mps 761 mmHg 44%
    11:00 +17°C° 0 mm 2 mps 761 mmHg 38%
    12:00 +18°C° 0 mm 1 mps 761 mmHg 37%
    13:00 +18°C° 0 mm 1 mps 761 mmHg 37%
    14:00 +19°C° 0 mm 1 mps 761 mmHg 36%
    15:00 +18°C° 0 mm 1 mps 760 mmHg 36%
    16:00 +18°C° 0 mm 1 mps 760 mmHg 36%
    17:00 +18°C° 0 mm 1 mps 760 mmHg 36%
    18:00 +16°C° 0 mm 1 mps 760 mmHg 40%
    19:00 +15°C° 0 mm 1 mps 760 mmHg 43%
    20:00 +13°C° 0 mm 1 mps 761 mmHg 46%
    21:00 +13°C° 0 mm 1 mps 761 mmHg 47%
    22:00 +12°C° 0 mm 1 mps 761 mmHg 48%
    23:00 +12°C° 0 mm 1 mps 761 mmHg 49%

    Tomorrow, 24 April, Wednesday

    Time Temperature Precipitation Wind Pressure Humidity
    00:00 +11°C° 0 mm 1 mps 761 mmHg 51%
    01:00 +11°C° 0 mm 1 mps 761 mmHg 53%
    02:00 +11°C° 0 mm 1 mps 761 mmHg 55%
    03:00 +10°C° 0 mm 1 mps 761 mmHg 56%
    04:00 +10°C° 0 mm 1 mps 761 mmHg 58%
    05:00 +10°C° 0 mm 1 mps 761 mmHg 59%
    06:00 +12°C° 0 mm 1 mps 761 mmHg 55%
    07:00 +13°C° 0 mm 2 mps 761 mmHg 52%
    08:00 +15°C° 0 mm 2 mps 761 mmHg 48%
    09:00 +17°C° 0 mm 2 mps 761 mmHg 43%
    10:00 +18°C° 0 mm 2 mps 761 mmHg 39%
    11:00 +19°C° 0 mm 3 mps 761 mmHg 35%
    12:00 +19°C° 0 mm 2 mps 761 mmHg 34%
    13:00 +20°C° 0 mm 2 mps 761 mmHg 32%
    14:00 +20°C° 0 mm 2 mps 761 mmHg 31%
    15:00 +20°C° 0 mm 2 mps 761 mmHg 32%
    16:00 +21°C° 0 mm 1 mps 760 mmHg 33%
    17:00 +21°C° 0 mm 1 mps 760 mmHg 33%
    18:00 +19°C° 0 mm 1 mps 760 mmHg 37%
    19:00 +17°C° 0 mm 2 mps 760 mmHg 41%
    20:00 +15°C° 0 mm 2 mps 760 mmHg 45%
    21:00 +15°C° 0 mm 2 mps 760 mmHg 48%
    22:00 +14°C° 0 mm 2 mps 760 mmHg 51%
    23:00 +13°C° 0 mm 2 mps 761 mmHg 53%

    Day after tomorrow, 25 April, Thursday

    Time Temperature Precipitation Wind Pressure Humidity
    00:00 +13°C° 0 mm 1 mps 761 mmHg 54%
    01:00 +12°C° 0 mm 1 mps 761 mmHg 56%
    02:00 +12°C° 0 mm 1 mps 761 mmHg 57%
    03:00 +12°C° 0 mm 1 mps 761 mmHg 58%
    04:00 +10°C° 0 mm 0 mps 761 mmHg 58%
    05:00 +10°C° 0 mm 0 mps 761 mmHg 59%
    06:00 +12°C° 0 mm 0 mps 761 mmHg 55%
    07:00 +15°C° 0 mm 1 mps 761 mmHg 51%
    08:00 +18°C° 0 mm 1 mps 761 mmHg 47%
    09:00 +19°C° 0 mm 1 mps 761 mmHg 43%
    10:00 +19°C° 0 mm 2 mps 761 mmHg 40%
    11:00 +20°C° 0 mm 2 mps 761 mmHg 37%
    12:00 +21°C° 0 mm 2 mps 760 mmHg 36%
    13:00 +22°C° 0 mm 1 mps 760 mmHg 36%
    14:00 +22°C° 0 mm 1 mps 760 mmHg 35%
    15:00 +22°C° 0 mm 1 mps 759 mmHg 36%
    16:00 +22°C° 0 mm 1 mps 759 mmHg 37%
    17:00 +22°C° 0 mm 1 mps 759 mmHg 38%
    18:00 +20°C° 0 mm 1 mps 759 mmHg 42%
    19:00 +19°C° 0 mm 1 mps 759 mmHg 46%
    20:00 +16°C° 0 mm 1 mps 759 mmHg 50%
    21:00 +15°C° 0 mm 0 mps 759 mmHg 51%
    22:00 +14°C° 0 mm 0 mps 759 mmHg 52%
    23:00 +14°C° 0 mm 0 mps 759 mmHg 54%

    26 April, Friday

    Time Temperature Precipitation Wind Pressure Humidity
    00:00 +14°C° 0 mm 1 mps 758 mmHg 55%
    01:00 +14°C° 0 mm 1 mps 758 mmHg 57%
    02:00 +13°C° 0 mm 1 mps 758 mmHg 58%
    03:00 +13°C° 0 mm 1 mps 758 mmHg 60%
    04:00 +13°C° 0 mm 1 mps 758 mmHg 61%
    05:00 +13°C° 0 mm 1 mps 758 mmHg 63%
    06:00 +14°C° 0 mm 1 mps 758 mmHg 58%
    07:00 +16°C° 0 mm 1 mps 758 mmHg 54%
    08:00 +19°C° 0 mm 1 mps 758 mmHg 49%
    09:00 +20°C° 0 mm 1 mps 758 mmHg 46%
    10:00 +21°C° 0 mm 1 mps 758 mmHg 43%
    11:00 +23°C° 0 mm 2 mps 757 mmHg 39%
    12:00 +23°C° 0 mm 1 mps 757 mmHg 41%
    13:00 +22°C° 0 mm 1 mps 757 mmHg 43%
    14:00 +22°C° 0 mm 1 mps 756 mmHg 45%
    15:00 +22°C° 0 mm 1 mps 756 mmHg 45%
    16:00 +22°C° 0 mm 1 mps 756 mmHg 46%
    17:00 +22°C° 0 mm 1 mps 756 mmHg 47%
    18:00 +21°C° 0 mm 1 mps 756 mmHg 49%
    19:00 +20°C° 0 mm 1 mps 756 mmHg 51%
    20:00 +19°C° 0 mm 1 mps 756 mmHg 53%
    21:00 +18°C° 0 mm 1 mps 756 mmHg 55%
    22:00 +16°C° 0 mm 1 mps 756 mmHg 58%
    23:00 +15°C° 0 mm 1 mps 756 mmHg 60%

    27 April, Saturday

    Time Temperature Precipitation Wind Pressure Humidity
    00:00 +15°C° 0 mm 2 mps 756 mmHg 62%
    01:00 +15°C° 0 mm 2 mps 755 mmHg 64%
    02:00 +14°C° 0 mm 2 mps 755 mmHg 66%
    03:00 +14°C° 0 mm 1 mps 755 mmHg 69%
    04:00 +14°C° 0 mm 1 mps 755 mmHg 71%
    05:00 +13°C° 0 mm 1 mps 755 mmHg 74%
    06:00 +15°C° 0 mm 1 mps 755 mmHg 69%
    07:00 +17°C° 0 mm 2 mps 755 mmHg 64%
    08:00 +19°C° 0 mm 2 mps 755 mmHg 59%
    09:00 +20°C° 0.1 mm 2 mps 755 mmHg 55%
    10:00 +21°C° 0.1 mm 3 mps 755 mmHg 50%
    11:00 +22°C° 0.1 mm 3 mps 754 mmHg 45%
    12:00 +22°C° 0 mm 3 mps 754 mmHg 42%
    13:00 +24°C° 0 mm 3 mps 754 mmHg 39%
    14:00 +24°C° 0 mm 3 mps 753 mmHg 36%
    15:00 +22°C° 0 mm 3 mps 753 mmHg 40%
    16:00 +22°C° 0 mm 3 mps 753 mmHg 43%
    17:00 +21°C° 0 mm 3 mps 752 mmHg 46%
    18:00 +20°C° 0 mm 3 mps 753 mmHg 48%
    19:00 +19°C° 0 mm 3 mps 753 mmHg 51%
    20:00 +19°C° 0 mm 3 mps 753 mmHg 53%
    21:00 +18°C° 0 mm 2 mps 753 mmHg 54%
    22:00 +18°C° 0 mm 2 mps 753 mmHg 54%
    23:00 +18°C° 0 mm 2 mps 753 mmHg 55%

    28 April, Sunday

    Time Temperature Precipitation Wind Pressure Humidity
    00:00 +17°C° 0 mm 2 mps 753 mmHg 55%
    01:00 +17°C° 0 mm 2 mps 753 mmHg 55%
    02:00 +17°C° 0 mm 2 mps 752 mmHg 55%
    03:00 +17°C° 0 mm 2 mps 752 mmHg 57%
    04:00 +16°C° 0 mm 2 mps 752 mmHg 59%
    05:00 +16°C° 0 mm 2 mps 752 mmHg 62%
    06:00 +17°C° 0 mm 2 mps 752 mmHg 58%
    07:00 +18°C° 0 mm 2 mps 752 mmHg 55%
    08:00 +20°C° 0 mm 2 mps 752 mmHg 51%
    09:00 +20°C° 0 mm 2 mps 752 mmHg 46%
    10:00 +21°C° 0 mm 3 mps 752 mmHg 42%
    11:00 +22°C° 0 mm 4 mps 752 mmHg 37%
    12:00 +22°C° 0 mm 3 mps 752 mmHg 37%
    13:00 +22°C° 0 mm 3 mps 751 mmHg 38%
    14:00 +22°C° 0 mm 3 mps 751 mmHg 39%
    15:00 +23°C° 0 mm 2 mps 751 mmHg 41%
    16:00 +23°C° 0 mm 2 mps 751 mmHg 44%
    17:00 +23°C° 0 mm 2 mps 751 mmHg 47%
    18:00 +21°C° 0 mm 2 mps 751 mmHg 48%
    19:00 +20°C° 0 mm 2 mps 751 mmHg 50%
    20:00 +19°C° 0 mm 2 mps 751 mmHg 51%
    21:00 +19°C° 0 mm 2 mps 751 mmHg 53%
    22:00 +18°C° 0 mm 2 mps 751 mmHg 55%
    23:00 +18°C° 0 mm 2 mps 751 mmHg 57%
    Show more